• In United Kingdom
  • List of Countries
  • For 7 days
  • Water Temperature
  • Satellite Maps
  • Weather Map
  • Weather Widgets
  • user-avatar
    Login

    Hourly Weather Zareche (Signevichi)

    Today, 16 July, Monday

    Time Temperature Precipitation Wind Pressure Humidity
    00:00 +18°C° 0.1 mm 2 mps 743 mmHg 94%
    01:00 +17°C° 0.1 mm 2 mps 743 mmHg 95%
    02:00 +17°C° 0.1 mm 2 mps 743 mmHg 95%
    03:00 +17°C° 0.1 mm 2 mps 743 mmHg 96%
    04:00 +17°C° 0.1 mm 2 mps 743 mmHg 96%
    05:00 +17°C° 0.1 mm 3 mps 743 mmHg 97%
    06:00 +18°C° 0.7 mm 3 mps 743 mmHg 94%
    07:00 +19°C° 0.7 mm 3 mps 743 mmHg 91%
    08:00 +21°C° 0.7 mm 4 mps 743 mmHg 88%
    09:00 +21°C° 1.2 mm 4 mps 743 mmHg 84%
    10:00 +22°C° 1.2 mm 4 mps 743 mmHg 81%
    11:00 +23°C° 1.2 mm 4 mps 742 mmHg 77%
    12:00 +23°C° 0.9 mm 4 mps 742 mmHg 78%
    13:00 +23°C° 0.9 mm 4 mps 742 mmHg 78%
    14:00 +23°C° 0.9 mm 4 mps 742 mmHg 78%
    15:00 +23°C° 0.4 mm 4 mps 742 mmHg 79%
    16:00 +23°C° 0.4 mm 4 mps 741 mmHg 81%
    17:00 +22°C° 0.4 mm 4 mps 741 mmHg 82%
    18:00 +21°C° 0 mm 3 mps 741 mmHg 85%
    19:00 +20°C° 0 mm 3 mps 741 mmHg 89%
    20:00 +20°C° 0 mm 2 mps 741 mmHg 92%
    21:00 +19°C° 0 mm 2 mps 741 mmHg 94%
    22:00 +18°C° 0 mm 2 mps 741 mmHg 95%
    23:00 +18°C° 0 mm 1 mps 741 mmHg 97%

    Tomorrow, 17 July, Tuesday

    Time Temperature Precipitation Wind Pressure Humidity
    00:00 +18°C° 0 mm 1 mps 741 mmHg 97%
    01:00 +18°C° 0 mm 1 mps 741 mmHg 97%
    02:00 +18°C° 0 mm 1 mps 740 mmHg 97%
    03:00 +17°C° 0 mm 2 mps 740 mmHg 97%
    04:00 +17°C° 0 mm 2 mps 740 mmHg 97%
    05:00 +17°C° 0 mm 2 mps 740 mmHg 97%
    06:00 +18°C° 0.8 mm 2 mps 740 mmHg 97%
    07:00 +18°C° 0.8 mm 2 mps 740 mmHg 96%
    08:00 +19°C° 0.8 mm 2 mps 740 mmHg 96%
    09:00 +19°C° 0.7 mm 2 mps 740 mmHg 95%
    10:00 +20°C° 0.7 mm 3 mps 740 mmHg 95%
    11:00 +20°C° 0.7 mm 3 mps 740 mmHg 95%
    12:00 +21°C° 0.6 mm 3 mps 740 mmHg 93%
    13:00 +22°C° 0.6 mm 3 mps 740 mmHg 91%
    14:00 +23°C° 0.6 mm 4 mps 739 mmHg 89%
    15:00 +23°C° 1.3 mm 4 mps 739 mmHg 89%
    16:00 +23°C° 1.3 mm 4 mps 739 mmHg 89%
    17:00 +23°C° 1.3 mm 4 mps 739 mmHg 89%
    18:00 +23°C° 2.1 mm 4 mps 739 mmHg 90%
    19:00 +22°C° 2.1 mm 4 mps 739 mmHg 91%
    20:00 +22°C° 2.1 mm 3 mps 739 mmHg 92%
    21:00 +21°C° 0.7 mm 3 mps 739 mmHg 93%
    22:00 +21°C° 0.7 mm 3 mps 739 mmHg 94%
    23:00 +21°C° 0.7 mm 3 mps 739 mmHg 95%

    Day after tomorrow, 18 July, Wednesday

    Time Temperature Precipitation Wind Pressure Humidity
    00:00 +20°C° 0 mm 3 mps 739 mmHg 95%
    01:00 +20°C° 0 mm 3 mps 738 mmHg 95%
    02:00 +20°C° 0 mm 3 mps 738 mmHg 96%
    03:00 +19°C° 0 mm 3 mps 738 mmHg 96%
    04:00 +19°C° 0 mm 3 mps 738 mmHg 96%
    05:00 +19°C° 0 mm 3 mps 738 mmHg 96%
    06:00 +20°C° 0 mm 3 mps 739 mmHg 94%
    07:00 +21°C° 0 mm 4 mps 739 mmHg 92%
    08:00 +22°C° 0 mm 4 mps 739 mmHg 89%
    09:00 +23°C° 0.1 mm 4 mps 739 mmHg 87%
    10:00 +25°C° 0.1 mm 4 mps 739 mmHg 85%
    11:00 +25°C° 0.1 mm 4 mps 739 mmHg 82%
    12:00 +26°C° 0.3 mm 4 mps 739 mmHg 80%
    13:00 +27°C° 0.3 mm 4 mps 739 mmHg 77%
    14:00 +27°C° 0.3 mm 4 mps 739 mmHg 74%
    15:00 +27°C° 0.3 mm 4 mps 739 mmHg 74%
    16:00 +28°C° 0.3 mm 4 mps 739 mmHg 75%
    17:00 +28°C° 0.3 mm 4 mps 739 mmHg 75%
    18:00 +26°C° 0.5 mm 3 mps 740 mmHg 80%
    19:00 +25°C° 0.5 mm 3 mps 740 mmHg 85%
    20:00 +24°C° 0.5 mm 2 mps 740 mmHg 90%
    21:00 +23°C° 0.2 mm 2 mps 740 mmHg 92%
    22:00 +23°C° 0.2 mm 2 mps 740 mmHg 93%
    23:00 +21°C° 0.2 mm 2 mps 741 mmHg 95%

    19 July, Thursday

    Time Temperature Precipitation Wind Pressure Humidity
    00:00 +20°C° 0 mm 2 mps 741 mmHg 96%
    01:00 +20°C° 0 mm 2 mps 741 mmHg 96%
    02:00 +20°C° 0 mm 2 mps 741 mmHg 97%
    03:00 +20°C° 0 mm 3 mps 741 mmHg 97%
    04:00 +20°C° 0 mm 3 mps 741 mmHg 97%
    05:00 +20°C° 0 mm 3 mps 741 mmHg 97%
    06:00 +21°C° 0.1 mm 3 mps 742 mmHg 95%
    07:00 +21°C° 0.1 mm 3 mps 742 mmHg 92%
    08:00 +22°C° 0.1 mm 4 mps 742 mmHg 89%
    09:00 +23°C° 0.2 mm 4 mps 742 mmHg 87%
    10:00 +25°C° 0.2 mm 4 mps 742 mmHg 85%
    11:00 +25°C° 0.2 mm 4 mps 742 mmHg 82%
    12:00 +26°C° 0.3 mm 4 mps 742 mmHg 81%
    13:00 +26°C° 0.3 mm 5 mps 742 mmHg 80%
    14:00 +27°C° 0.3 mm 5 mps 742 mmHg 79%
    15:00 +27°C° 0.5 mm 5 mps 742 mmHg 79%
    16:00 +27°C° 0.5 mm 5 mps 742 mmHg 79%
    17:00 +27°C° 0.5 mm 5 mps 743 mmHg 79%
    18:00 +26°C° 0.1 mm 5 mps 743 mmHg 82%
    19:00 +25°C° 0.1 mm 4 mps 743 mmHg 86%
    20:00 +23°C° 0.1 mm 4 mps 743 mmHg 89%
    21:00 +22°C° 0 mm 4 mps 743 mmHg 91%
    22:00 +21°C° 0 mm 4 mps 743 mmHg 92%
    23:00 +21°C° 0 mm 4 mps 743 mmHg 94%

    20 July, Friday

    Time Temperature Precipitation Wind Pressure Humidity
    00:00 +20°C° 0 mm 4 mps 744 mmHg 95%
    01:00 +19°C° 0 mm 4 mps 744 mmHg 95%
    02:00 +19°C° 0 mm 4 mps 744 mmHg 96%
    03:00 +19°C° 0 mm 4 mps 744 mmHg 96%
    04:00 +18°C° 0 mm 4 mps 744 mmHg 95%
    05:00 +17°C° 0 mm 5 mps 744 mmHg 95%
    06:00 +18°C° 0.1 mm 4 mps 744 mmHg 94%
    07:00 +19°C° 0.1 mm 4 mps 744 mmHg 93%
    08:00 +19°C° 0.1 mm 4 mps 745 mmHg 93%
    09:00 +19°C° 0.1 mm 4 mps 745 mmHg 91%
    10:00 +20°C° 0.1 mm 4 mps 745 mmHg 89%
    11:00 +21°C° 0.1 mm 4 mps 745 mmHg 88%
    12:00 +22°C° 0 mm 4 mps 745 mmHg 83%
    13:00 +23°C° 0 mm 4 mps 745 mmHg 79%
    14:00 +25°C° 0 mm 4 mps 745 mmHg 74%
    15:00 +26°C° 0.1 mm 4 mps 745 mmHg 73%
    16:00 +26°C° 0.1 mm 4 mps 745 mmHg 71%
    17:00 +27°C° 0.1 mm 4 mps 745 mmHg 69%
    18:00 +26°C° 0.1 mm 4 mps 745 mmHg 74%
    19:00 +24°C° 0.1 mm 3 mps 745 mmHg 80%
    20:00 +22°C° 0.1 mm 3 mps 745 mmHg 85%
    21:00 +21°C° 0 mm 3 mps 745 mmHg 88%
    22:00 +20°C° 0 mm 3 mps 745 mmHg 91%
    23:00 +19°C° 0 mm 3 mps 745 mmHg 94%

    21 July, Saturday

    Time Temperature Precipitation Wind Pressure Humidity
    00:00 +19°C° 0 mm 3 mps 745 mmHg 94%
    01:00 +18°C° 0 mm 3 mps 745 mmHg 95%
    02:00 +17°C° 0 mm 3 mps 745 mmHg 96%
    03:00 +17°C° 0 mm 3 mps 745 mmHg 96%
    04:00 +16°C° 0 mm 3 mps 745 mmHg 96%
    05:00 +16°C° 0 mm 3 mps 745 mmHg 96%
    06:00 +17°C° 0 mm 3 mps 745 mmHg 92%
    07:00 +18°C° 0 mm 3 mps 745 mmHg 89%
    08:00 +19°C° 0 mm 3 mps 745 mmHg 85%
    09:00 +21°C° 0 mm 3 mps 745 mmHg 80%
    10:00 +24°C° 0 mm 3 mps 745 mmHg 75%
    11:00 +25°C° 0 mm 3 mps 745 mmHg 70%
    12:00 +26°C° 0 mm 3 mps 745 mmHg 67%
    13:00 +27°C° 0 mm 3 mps 745 mmHg 64%
    14:00 +27°C° 0 mm 3 mps 745 mmHg 61%
    15:00 +27°C° 0.1 mm 3 mps 744 mmHg 61%
    16:00 +27°C° 0.1 mm 3 mps 744 mmHg 62%
    17:00 +27°C° 0.1 mm 3 mps 744 mmHg 62%
    18:00 +26°C° 0 mm 2 mps 744 mmHg 68%
    19:00 +25°C° 0 mm 2 mps 744 mmHg 74%
    20:00 +23°C° 0 mm 2 mps 744 mmHg 80%
    21:00 +21°C° 0 mm 2 mps 744 mmHg 83%
    22:00 +20°C° 0 mm 2 mps 744 mmHg 86%
    23:00 +20°C° 0 mm 1 mps 744 mmHg 89%
    Show more